Home > Weather > Seelze > Past weeks

Flag for Germany Weather for the Past 2 Weeks in Seelze, Lower Saxony, Germany

Now
46 °F

Overcast.


Feels Like: 40 °F
Forecast: 37 / 43 °F
Wind: 15 mph from Southeast

Location: Hannover

Current Time: Feb 9, 2016 at 2:55:41 PM

Latest Report: Feb 9, 2016 at 2:20 PM


Visibility: N/A

Pressure: 29.12 "Hg

Humidity: 71%

Dew point: 37 °F

Location of SeelzeLocation

Historic Weather in Seelze — Graph

°F

Seelze Temperature Yesterday

Maximum temperature yesterday: 50 °F (at 1:50 PM)
Minimum temperature yesterday: 43 °F (at 12:20 AM)
Average temperature yesterday: 46 °F

High & Low Weather Summary for the Past Weeks

 TemperatureHumidityPressure
High55 °F (Feb 7, 11:50 AM)100% (Jan 30, 7:50 PM)30.27 "Hg (Jan 30, 7:50 PM)
Low36 °F (Jan 30, 7:20 PM)59% (Feb 7, 11:50 AM)29.18 "Hg (Feb 9, 1:20 PM)
Average46 °F83%29.86 "Hg
* Reported Jan 25 1:20 PM — Feb 9 1:20 PM, Seelze, Weather by CustomWeather, © 2016

Note: Actual official high and low records may vary slightly from our data, if they occured in-between our weather recording intervals... More about our weather records

Advertising

Seelze Weather History for the Previous 24 Hours

 ConditionsComfort  
Time TempWeatherWind HumidityBarometerVisibility
1:20 PM
Tue, Feb 9
46 °FOvercast.12 mph71%29.18 "HgN/A
12:50 PM46 °FBroken clouds.12 mph71%29.21 "HgN/A
12:20 PM46 °FBroken clouds.12 mph71%29.24 "HgN/A
11:20 AM46 °FBroken clouds.14 mph71%29.30 "HgN/A
10:50 AM45 °FBroken clouds.16 mph76%29.30 "HgN/A
10:20 AM45 °FBroken clouds.18 mph76%29.33 "HgN/A
9:50 AM45 °FBroken clouds.17 mph76%29.33 "HgN/A
9:20 AM43 °FBroken clouds.13 mph81%29.36 "HgN/A
8:50 AM45 °FSprinkles. Partly sunny.17 mph71%29.36 "HgN/A
8:20 AM45 °FPartly sunny.15 mph71%29.36 "HgN/A
7:50 AM45 °FPartly sunny.14 mph71%29.36 "HgN/A
7:20 AM45 °FPartly cloudy.18 mph71%29.36 "HgN/A
6:50 AM45 °FPartly cloudy.16 mph71%29.36 "HgN/A
6:20 AM43 °FSprinkles. Passing clouds.14 mph81%29.36 "HgN/A
5:50 AM45 °FPassing clouds.22 mph71%29.36 "HgN/A
5:20 AM45 °FClear.24 mph66%29.33 "Hg10 mi
4:20 AM46 °FLight rain. Passing clouds.23 mph71%29.33 "HgN/A
3:50 AM46 °FLight rain. Passing clouds.26 mph71%29.33 "HgN/A
3:20 AM46 °FLight rain. Passing clouds.24 mph71%29.30 "HgN/A
2:50 AM46 °FLight rain. Passing clouds.24 mph76%29.30 "HgN/A
2:20 AM45 °FLight rain. Passing clouds.24 mph81%29.30 "HgN/A
1:50 AM45 °FLight rain. Passing clouds.24 mph81%29.27 "HgN/A
1:20 AM45 °FLight rain. Passing clouds.24 mph87%29.27 "HgN/A
12:50 AM43 °FLight rain. Passing clouds.24 mph87%29.27 "HgN/A
12:20 AM45 °FLight rain. Passing clouds.24 mph81%29.27 "HgN/A
11:50 PM
Mon, Feb 8
45 °FLight rain. Passing clouds.24 mph81%29.24 "HgN/A
11:20 PM46 °FSprinkles. Passing clouds.25 mph71%29.24 "HgN/A
10:50 PM45 °FSprinkles. Passing clouds.25 mph81%29.24 "HgN/A
10:20 PM45 °FSprinkles. Passing clouds.23 mph81%29.24 "HgN/A
9:50 PM45 °FPassing clouds.20 mph81%29.24 "HgN/A
9:20 PM45 °FSprinkles. Passing clouds.21 mph81%29.24 "HgN/A
8:50 PM45 °FSprinkles. Passing clouds.24 mph81%29.24 "HgN/A
8:20 PM46 °FPassing clouds.21 mph71%29.24 "HgN/A
7:50 PM45 °FPassing clouds.18 mph76%29.24 "HgN/A
7:20 PM46 °FPassing clouds.23 mph71%29.24 "HgN/A
6:50 PM46 °FPassing clouds.17 mph71%29.24 "HgN/A
6:20 PM46 °FPassing clouds.22 mph71%29.24 "HgN/A
5:50 PM46 °FPartly cloudy.20 mph76%29.24 "HgN/A
5:20 PM46 °FPassing clouds.17 mph76%29.21 "HgN/A
4:50 PM45 °FPassing clouds.17 mph81%29.21 "HgN/A
4:20 PM45 °FPassing clouds.16 mph81%29.21 "HgN/A
3:50 PM45 °FSprinkles. Scattered clouds.18 mph81%29.21 "HgN/A
3:20 PM45 °FSprinkles. Partly sunny.29 mph81%29.24 "HgN/A
2:50 PM50 °FPartly sunny.20 mph71%29.21 "HgN/A
2:20 PM50 °FBroken clouds.20 mph71%29.21 "HgN/A
Weather by CustomWeather, © 2016

See weather overviewHow to use our weather pages